Weather History for Athens Eleftherios, Greece

Change the Weather History Date:

Sunday, August 18, 2013

  Actual Average (LGEL) Record (LGEL)
Temperature  
Mean Temperature 81 °F -  
Max Temperature 87 °F 91 °F 98 °F (2003)
Min Temperature 75 °F 73 °F 66 °F (2004)
Cooling Degree Days 16    
Growing Degree Days 31 (Base 50)    
Moisture  
Dew Point 51 °F    
Average Humidity 36    
Maximum Humidity 53    
Minimum Humidity 25    
Precipitation  
Precipitation 0.00 in - - ()
Sea Level Pressure  
Sea Level Pressure 29.95 in    
Wind  
Wind Speed 14 mph ()    
Max Wind Speed 24 mph    
Max Gust Speed 36 mph    
Visibility 6.2 miles    
Events      
Averages and records for this station are not official NWS values.
T = Trace of Precipitation, MM = Missing Value Source: Averaged Metar Reports

Daily Weather History Graph

Daily Weather History Graph

Search for Another Location

Airport:

Trip Planner

Search our weather history database for the weather conditions in past years. The results will help you decide how hot, cold, wet, or windy it might be!

Date:

Astronomy

Aug. 18, 2013 Rise Set
Actual Time 6:42 AM EEST 8:13 PM EEST
Civil Twilight 6:14 AM EEST 8:41 PM EEST
Nautical Twilight 5:40 AM EEST 9:14 PM EEST
Astronomical Twilight 5:05 AM EEST 9:49 PM EEST
Moon 6:03 PM EEST (8/18) 3:31 AM EEST (8/18)
Length of Visible Light 14h 27m
Length of Day
13h 31m
Waxing Gibbous, 90% of the Moon is Illuminated
Aug 18
Waxing Gibbous
Aug 21
Full
Aug 28
Last Quarter
Sep 5
New
Sep 12
First Quarter

Hourly Weather History & Observations

Time (EEST) Temp. Heat Index Dew Point Humidity Pressure Visibility Wind Dir Wind Speed Gust Speed Precip Events Conditions
12:20 AM 80.6 °F 81.5 °F 60.8 °F 51% 29.92 in 6.2 mi North 15.0 mph - N/A   Partly Cloudy
12:50 AM 80.6 °F 81.1 °F 59.0 °F 48% 29.92 in 6.2 mi North 15.0 mph - N/A   Partly Cloudy
1:20 AM 78.8 °F - 59.0 °F 51% 29.92 in 6.2 mi North 11.5 mph - N/A   Partly Cloudy
1:50 AM 78.8 °F - 59.0 °F 51% 29.92 in 6.2 mi NNE 9.2 mph - N/A   Partly Cloudy
2:20 AM 78.8 °F - 57.2 °F 47% 29.92 in 6.2 mi NNE 9.2 mph - N/A   Partly Cloudy
2:50 AM 78.8 °F - 57.2 °F 47% 29.92 in 6.2 mi NE 11.5 mph - N/A   Partly Cloudy
3:20 AM 77.0 °F - 57.2 °F 50% 29.92 in 6.2 mi NE 13.8 mph - N/A   Partly Cloudy
3:50 AM 77.0 °F - 55.4 °F 47% 29.92 in 6.2 mi NNE 15.0 mph - N/A   Partly Cloudy
4:20 AM 77.0 °F - 55.4 °F 47% 29.92 in 6.2 mi NNE 19.6 mph - N/A   Partly Cloudy
4:50 AM 75.2 °F - 57.2 °F 53% 29.92 in 6.2 mi NNE 15.0 mph - N/A   Partly Cloudy
5:20 AM 75.2 °F - 57.2 °F 53% 29.92 in 6.2 mi NNE 15.0 mph - N/A   Partly Cloudy
5:50 AM 75.2 °F - 57.2 °F 53% 29.95 in 6.2 mi NE 13.8 mph - N/A   Partly Cloudy
6:20 AM 75.2 °F - 57.2 °F 53% 29.95 in 6.2 mi NNE 16.1 mph - N/A   Partly Cloudy
6:50 AM 75.2 °F - 57.2 °F 53% 29.95 in 6.2 mi NNE 8.1 mph - N/A   Partly Cloudy
7:20 AM 77.0 °F - 53.6 °F 44% 29.95 in - NNE 9.2 mph - N/A   Clear
7:50 AM 77.0 °F - 53.6 °F 44% 29.95 in - NNE 8.1 mph - N/A   Clear
8:20 AM 78.8 °F - 53.6 °F 42% 29.95 in - North 12.7 mph - N/A   Clear
8:50 AM 80.6 °F - 50.0 °F 34% 29.95 in - North 16.1 mph - N/A   Clear
9:20 AM 80.6 °F - 50.0 °F 34% 29.98 in - North 19.6 mph 32.2 mph N/A   Clear
9:50 AM 82.4 °F - 51.8 °F 35% 29.98 in - North 20.7 mph - N/A   Clear
10:20 AM 84.2 °F - 50.0 °F 30% 29.98 in - North 23.0 mph - N/A   Clear
10:50 AM 84.2 °F - 50.0 °F 30% 29.98 in - North 24.2 mph 35.7 mph N/A   Clear
11:20 AM 84.2 °F - 50.0 °F 30% 29.98 in - North 20.7 mph - N/A   Clear
11:50 AM 86.0 °F - 50.0 °F 29% 29.98 in - NNE 23.0 mph - N/A   Clear
12:20 PM 84.2 °F - 50.0 °F 30% 29.98 in - NNE 23.0 mph 34.5 mph N/A   Clear
12:50 PM 86.0 °F - 48.2 °F 27% 29.98 in 6.2 mi NNE 19.6 mph 31.1 mph N/A   Partly Cloudy
1:20 PM 86.0 °F - 48.2 °F 27% 29.98 in 6.2 mi NNE 24.2 mph - N/A   Partly Cloudy
1:50 PM 86.0 °F - 50.0 °F 29% 29.98 in 6.2 mi NNE 20.7 mph - N/A   Partly Cloudy
2:20 PM 87.8 °F - 48.2 °F 25% 29.98 in 6.2 mi NNE 20.7 mph - N/A   Partly Cloudy
2:50 PM 87.8 °F - 50.0 °F 27% 29.98 in - NE 21.9 mph - N/A   Clear
3:20 PM 86.0 °F - 50.0 °F 29% 29.95 in - NE 21.9 mph - N/A   Clear
3:50 PM 87.8 °F - 50.0 °F 27% 29.95 in 6.2 mi NE 21.9 mph - N/A   Partly Cloudy
4:20 PM 87.8 °F - 50.0 °F 27% 29.95 in 6.2 mi NE 24.2 mph - N/A   Partly Cloudy
4:50 PM 87.8 °F - 48.2 °F 25% 29.95 in - NE 21.9 mph - N/A   Clear
5:20 PM 86.0 °F - 48.2 °F 27% 29.95 in - NE 21.9 mph - N/A   Clear
5:50 PM 86.0 °F - 50.0 °F 29% 29.95 in - NNE 18.4 mph - N/A   Clear
6:20 PM 86.0 °F - 50.0 °F 29% 29.95 in - NNE 18.4 mph - N/A   Clear
6:50 PM 84.2 °F - 50.0 °F 30% 29.92 in - NNE 15.0 mph - N/A   Clear
7:20 PM 84.2 °F - 50.0 °F 30% 29.92 in - NNE 13.8 mph - N/A   Clear
7:50 PM 84.2 °F - 46.4 °F 27% 29.92 in - North 13.8 mph - N/A   Clear
8:20 PM 84.2 °F - 46.4 °F 27% 29.95 in - North 12.7 mph - N/A   Clear
8:50 PM 82.4 °F - 46.4 °F 28% 29.95 in - NNE 10.4 mph - N/A   Clear
9:20 PM 82.4 °F - 46.4 °F 28% 29.95 in - North 9.2 mph - N/A   Clear
9:50 PM 82.4 °F - 46.4 °F 28% 29.95 in - North 8.1 mph - N/A   Clear
10:20 PM 82.4 °F - 46.4 °F 28% 29.95 in - North 6.9 mph - N/A   Clear
10:50 PM 80.6 °F - 46.4 °F 30% 29.95 in - North 13.8 mph - N/A   Clear
11:20 PM 82.4 °F - 42.8 °F 25% 29.95 in - NNE 13.8 mph - N/A   Clear
11:50 PM 82.4 °F - 44.6 °F 26% 29.95 in - North 10.4 mph - N/A   Clear